tititudorancea.com
Station Historical Data
Daily Summary for June 12, 2018 Units:  Metric    English   Both
« Previous Day
Next Day »
Daily Weekly Monthly Yearly Custom
  High: Low: Average:
Temperature: -17.8 °C 7 °C 10.2 °C
Dew Point: -17.8 °C 3.9 °C 8.3 °C
Humidity: Humidity % 73 % 88 %
Wind Speed: 0 km/h 0 km/h 15.3 km/h
Wind Gust: 0 km/h - -
Wind:- - SW
Pressure: 0 hPa 1002.9 hPa -
Precipitation: 1.78 mm    
Historical Graphs
 
 
Ararat weather Find more about Weather in Ararat, AU


 



 


Tabular Data for June 12, 2018
Time Temperature Dew Point Pressure Wind Wind Speed Wind Gust Humidity Rainfall Rate (Hourly)
-17.8 °C -17.8 °C 0 hPa Calm     Humidity % 0 mm
00:04 9.1 °C 8.2 °C 1007.3 hPa NNE 18.5 km/h 11.1 km/h 94 % 0.76 mm
00:09 9 °C 8.1 °C 1007.3 hPa NNE 18.5 km/h 9 km/h 94 % 0.76 mm
00:14 8.9 °C 8.1 °C 1007.3 hPa NNE 13 km/h 7.4 km/h 94 % 0.51 mm
00:19 8.9 °C 8 °C 1007.3 hPa NNE 13 km/h 7.2 km/h 94 % 0.51 mm
00:24 8.8 °C 7.9 °C 1007 hPa NNE 11.1 km/h 7.1 km/h 94 % 0.25 mm
00:29 8.8 °C 7.9 °C 1007 hPa NNE 11.1 km/h 7.7 km/h 94 % 0 mm
00:34 8.8 °C 7.9 °C 1007 hPa NNE 9.3 km/h 6.3 km/h 94 % 0 mm
00:39 8.8 °C 7.9 °C 1006.7 hPa NNE 11.1 km/h 11.6 km/h 94 % 0 mm
00:44 8.8 °C 7.9 °C 1006.7 hPa NNE 14.8 km/h 6.6 km/h 94 % 0 mm
00:49 8.7 °C 7.8 °C 1006.7 hPa NNE 7.4 km/h 7.4 km/h 94 % 0 mm
00:54 8.7 °C 7.8 °C 1006.7 hPa NNE 13 km/h 8.9 km/h 94 % 0 mm
00:59 8.7 °C 7.8 °C 1006.3 hPa NNE 13 km/h 8.2 km/h 94 % 0 mm
01:04 8.7 °C 7.8 °C 1006.3 hPa North 7.4 km/h 8.2 km/h 94 % 0 mm
01:09 8.7 °C 7.8 °C 1006.3 hPa North 7.4 km/h 6.6 km/h 94 % 0 mm
01:14 8.6 °C 7.7 °C 1006.3 hPa North 11.1 km/h 6.1 km/h 94 % 0 mm
01:19 8.6 °C 7.7 °C 1006.3 hPa North 13 km/h 7.4 km/h 94 % 0 mm
01:24 8.5 °C 7.6 °C 1006 hPa North 9.7 km/h 6.9 km/h 94 % 0 mm
01:29 8.5 °C 7.6 °C 1006 hPa North 9.3 km/h 6.8 km/h 94 % 0 mm
01:34 8.5 °C 7.6 °C 1006 hPa North 11.1 km/h 6.4 km/h 94 % 0 mm
01:39 8.4 °C 7.5 °C 1006 hPa North 5.6 km/h 3.9 km/h 94 % 0 mm
01:44 8.4 °C 7.5 °C 1005.6 hPa North 5.6 km/h 4.7 km/h 94 % 0 mm
01:49 8.4 °C 7.5 °C 1005.6 hPa North 5.6 km/h 3.5 km/h 94 % 0 mm
01:54 8.4 °C 7.5 °C 1005.6 hPa North 5.6 km/h 3.1 km/h 94 % 0 mm
01:59 8.4 °C 7.5 °C 1005.6 hPa North 9.3 km/h 4.3 km/h 94 % 0 mm
02:04 8.4 °C 7.6 °C 1005.6 hPa North 5.6 km/h 3.2 km/h 94 % 0 mm
02:09 8.5 °C 7.6 °C 1006 hPa North 9.3 km/h 4.7 km/h 94 % 0 mm
02:14 8.5 °C 7.7 °C 1005.6 hPa North 11.1 km/h 4.3 km/h 95 % 0 mm
02:19 8.6 °C 7.8 °C 1005.6 hPa North 9.7 km/h 7.9 km/h 95 % 0 mm
02:24 8.6 °C 7.8 °C 1005.6 hPa North 14.8 km/h 9.8 km/h 95 % 0 mm
02:29 8.7 °C 7.9 °C 1005.6 hPa North 13 km/h 8.5 km/h 95 % 0.25 mm
02:34 8.7 °C 7.8 °C 1005.6 hPa North 16.7 km/h 12.7 km/h 94 % 0.25 mm
02:39 8.7 °C 7.8 °C 1005.3 hPa North 11.3 km/h 9.5 km/h 94 % 0.25 mm
02:44 8.7 °C 7.8 °C 1005.3 hPa North 16.7 km/h 10 km/h 94 % 0.25 mm
02:49 8.7 °C 7.8 °C 1005.3 hPa North 11.1 km/h 8.5 km/h 94 % 0.25 mm
02:54 8.6 °C 7.7 °C 1005 hPa North 12.9 km/h 10.8 km/h 94 % 0.25 mm
02:59 8.6 °C 7.7 °C 1005 hPa North 14.5 km/h 8.4 km/h 94 % 0.25 mm
03:04 8.6 °C 7.7 °C 1005 hPa North 16.7 km/h 10.1 km/h 94 % 0.25 mm
03:09 8.6 °C 7.7 °C 1005 hPa North 18.5 km/h 16.4 km/h 94 % 0.25 mm
03:14 8.6 °C 7.7 °C 1004.6 hPa NNE 24.1 km/h 13.2 km/h 94 % 0.25 mm
03:19 8.6 °C 7.7 °C 1004.6 hPa North 17.7 km/h 14 km/h 94 % 0.25 mm
03:24 8.6 °C 7.7 °C 1004.6 hPa North 22.2 km/h 13.5 km/h 94 % 0.25 mm
03:29 8.6 °C 7.7 °C 1004.6 hPa NNW 22.2 km/h 12.6 km/h 94 % 0 mm
03:34 8.7 °C 7.8 °C 1004.6 hPa North 18.5 km/h 12.1 km/h 94 % 0 mm
03:39 8.8 °C 7.9 °C 1004.3 hPa North 25.9 km/h 15.1 km/h 94 % 0 mm
03:44 8.8 °C 7.9 °C 1004.3 hPa North 27.8 km/h 13.2 km/h 94 % 0.25 mm
03:49 8.9 °C 8.1 °C 1004.3 hPa North 22.5 km/h 13.7 km/h 95 % 0.25 mm
03:54 9 °C 8.2 °C 1004.3 hPa North 20.4 km/h 12.6 km/h 95 % 0.25 mm
03:59 9 °C 8.2 °C 1004.3 hPa North 22.2 km/h 13.7 km/h 95 % 0.25 mm
04:04 9 °C 8.2 °C 1004.3 hPa North 18.5 km/h 16.3 km/h 95 % 0.25 mm
04:09 9 °C 8.2 °C 1004.3 hPa North 29.6 km/h 11.1 km/h 95 % 0.51 mm
04:14 9 °C 8.2 °C 1004.3 hPa North 22.2 km/h 7.7 km/h 95 % 0.51 mm
04:19 9 °C 8.2 °C 1004.3 hPa North 16.7 km/h 13.8 km/h 95 % 0.51 mm
04:24 9 °C 8.2 °C 1004.3 hPa North 18.5 km/h 11.7 km/h 95 % 0.76 mm
04:29 9.1 °C 8.3 °C 1004.3 hPa North 16.7 km/h 10.6 km/h 95 % 1.02 mm
04:34 9.1 °C 8.3 °C 1004.3 hPa North 18.5 km/h 13.8 km/h 95 % 1.02 mm
04:39 9.1 °C 8.3 °C 1003.9 hPa North 20.4 km/h 8.9 km/h 95 % 1.02 mm
04:44 9.1 °C 8.3 °C 1003.9 hPa North 18.5 km/h 13 km/h 95 % 0.76 mm
04:49 9.2 °C 8.4 °C 1003.9 hPa North 25.9 km/h 19.8 km/h 95 % 1.02 mm
04:54 9.2 °C 8.4 °C 1003.9 hPa NW 24.1 km/h 12.1 km/h 95 % 1.02 mm
04:59 9.2 °C 8.4 °C 1003.6 hPa North 18.5 km/h 9.5 km/h 95 % 1.02 mm
05:04 9.2 °C 8.4 °C 1003.9 hPa North 20.4 km/h 10.1 km/h 95 % 1.02 mm
05:09 9.2 °C 8.4 °C 1003.6 hPa North 22.2 km/h 16.6 km/h 95 % 0.76 mm
05:14 9.3 °C 8.5 °C 1003.9 hPa North 18.5 km/h 10.8 km/h 95 % 0.51 mm
05:19 9.3 °C 8.5 °C 1003.6 hPa North 18.5 km/h 9.7 km/h 95 % 0.51 mm
05:24 9.3 °C 8.5 °C 1003.9 hPa NNW 16.7 km/h 10.6 km/h 95 % 0.51 mm
05:29 9.3 °C 8.6 °C 1003.9 hPa NNW 20.4 km/h 10.8 km/h 95 % 0.25 mm
05:34 9.3 °C 8.6 °C 1003.9 hPa NNW 18.5 km/h 11.1 km/h 95 % 0.25 mm
05:39 9.4 °C 8.6 °C 1003.6 hPa North 22.2 km/h 17.7 km/h 95 % 0.25 mm
05:44 9.4 °C 8.6 °C 1003.6 hPa North 19.3 km/h 14.6 km/h 95 % 0.25 mm
05:49 9.4 °C 8.6 °C 1003.6 hPa North 24.1 km/h 13.8 km/h 95 % 0 mm
05:54 9.4 °C 8.6 °C 1003.6 hPa North 22.2 km/h 11.7 km/h 95 % 0 mm
05:59 9.4 °C 8.6 °C 1003.6 hPa North 25.9 km/h 15.9 km/h 95 % 0 mm
06:04 9.4 °C 8.6 °C 1003.6 hPa North 31.5 km/h 18.3 km/h 95 % 0 mm
06:09 9.4 °C 8.6 °C 1003.6 hPa North 20.4 km/h 12.6 km/h 95 % 0 mm
06:14 9.4 °C 8.6 °C 1003.6 hPa North 29.6 km/h 18.5 km/h 95 % 0 mm
06:19 9.4 °C 8.6 °C 1003.6 hPa NNW 12.9 km/h 10 km/h 95 % 0 mm
06:24 9.4 °C 8.6 °C 1003.6 hPa North 24.1 km/h 15 km/h 95 % 0.25 mm
06:29 9.4 °C 8.6 °C 1003.6 hPa NW 25.7 km/h 12.4 km/h 95 % 0.25 mm
06:34 9.3 °C 8.6 °C 1003.3 hPa North 20.4 km/h 13.7 km/h 95 % 0.25 mm
06:39 9.3 °C 8.6 °C 1003.3 hPa North 24.1 km/h 15.9 km/h 95 % 0.25 mm
06:44 9.3 °C 8.6 °C 1003.3 hPa North 19.3 km/h 13.7 km/h 95 % 0.25 mm
06:49 9.3 °C 8.6 °C 1003.3 hPa NNW 31.5 km/h 10.1 km/h 95 % 0.25 mm
06:54 9.3 °C 8.6 °C 1003.3 hPa NNW 27.8 km/h 15.3 km/h 95 % 0.25 mm
06:59 9.3 °C 8.6 °C 1003.6 hPa NNW 18.5 km/h 16.3 km/h 95 % 0.25 mm
07:04 9.3 °C 8.6 °C 1003.6 hPa NNW 22.2 km/h 9.3 km/h 95 % 0.25 mm
07:09 9.3 °C 8.6 °C 1003.6 hPa NNW 16.7 km/h 9.7 km/h 95 % 0.25 mm
07:14 9.3 °C 8.5 °C 1003.6 hPa North 18.5 km/h 10.9 km/h 95 % 0.25 mm
07:19 9.3 °C 8.6 °C 1003.6 hPa North 16.7 km/h 14.6 km/h 95 % 0.25 mm
07:24 9.3 °C 8.6 °C 1003.6 hPa NNW 20.4 km/h 13 km/h 95 % 0 mm
07:29 9.3 °C 8.6 °C 1003.9 hPa NNW 16.7 km/h 13.8 km/h 95 % 0 mm
07:34 9.3 °C 8.6 °C 1003.9 hPa North 16.7 km/h 6.6 km/h 95 % 0 mm
07:39 9.3 °C 8.6 °C 1003.6 hPa North 20.4 km/h 16.9 km/h 95 % 0 mm
07:44 9.4 °C 8.6 °C 1003.9 hPa NNW 14.8 km/h 8.4 km/h 95 % 0 mm
07:49 9.4 °C 8.6 °C 1003.6 hPa NNW 16.1 km/h 8.7 km/h 95 % 0 mm
07:54 9.4 °C 8.8 °C 1003.9 hPa North 11.3 km/h 9 km/h 96 % 0 mm
07:59 9.4 °C 8.8 °C 1003.6 hPa North 24.1 km/h 7.7 km/h 96 % 0 mm
08:04 9.4 °C 8.8 °C 1003.6 hPa NNW 16.7 km/h 9.3 km/h 96 % 0 mm
08:09 9.5 °C 8.9 °C 1003.6 hPa North 18.5 km/h 15.9 km/h 96 % 0 mm
08:14 9.5 °C 8.9 °C 1003.6 hPa NNW 16.7 km/h 13.4 km/h 96 % 0 mm
08:19 9.6 °C 8.9 °C 1003.6 hPa North 20.4 km/h 10.9 km/h 96 % 0 mm
08:24 9.6 °C 8.9 °C 1003.6 hPa NNW 18.5 km/h 8.5 km/h 96 % 0 mm
08:29 9.6 °C 8.8 °C 1003.6 hPa North 14.8 km/h 10.3 km/h 95 % 0 mm
08:34 9.7 °C 9.1 °C 1003.6 hPa North 14.8 km/h 8 km/h 96 % 0 mm
08:39 9.7 °C 8.9 °C 1003.6 hPa NNW 14.5 km/h 7.4 km/h 95 % 0 mm
08:44 9.7 °C 8.9 °C 1003.9 hPa NNW 14.8 km/h 14.8 km/h 95 % 0 mm
08:49 9.7 °C 8.9 °C 1003.9 hPa NNW 16.7 km/h 11.1 km/h 95 % 0 mm
08:54 9.7 °C 8.9 °C 1003.9 hPa NNW 14.8 km/h 10.3 km/h 95 % 0 mm
08:59 9.7 °C 8.9 °C 1003.9 hPa NNW 16.7 km/h 6.4 km/h 95 % 0 mm
09:04 9.7 °C 8.9 °C 1003.9 hPa North 14.8 km/h 10.3 km/h 95 % 0 mm
09:09 9.7 °C 8.9 °C 1003.9 hPa North 13 km/h 7.1 km/h 95 % 0 mm
09:14 9.7 °C 9.1 °C 1003.9 hPa North 11.1 km/h 5.6 km/h 96 % 0 mm
09:19 9.8 °C 9.2 °C 1003.9 hPa North 14.8 km/h 9.5 km/h 96 % 0 mm
09:24 9.8 °C 9.2 °C 1003.9 hPa North 16.7 km/h 10.3 km/h 96 % 0 mm
09:29 9.8 °C 9.2 °C 1003.9 hPa NNE 14.8 km/h 12.9 km/h 96 % 0 mm
09:34 9.9 °C 9.3 °C 1003.9 hPa North 16.7 km/h 9 km/h 96 % 0 mm
09:39 9.9 °C 9.3 °C 1004.3 hPa North 9.7 km/h 6.6 km/h 96 % 0 mm
09:44 10.1 °C 9.4 °C 1004.3 hPa North 13 km/h 8.5 km/h 96 % 0 mm
09:49 10.1 °C 9.5 °C 1004.3 hPa North 11.1 km/h 6.4 km/h 96 % 0 mm
09:54 10.2 °C 9.6 °C 1004.3 hPa NNE 18.5 km/h 9.5 km/h 96 % 0 mm
09:59 10.4 °C 9.8 °C 1004.3 hPa North 14.8 km/h 10 km/h 96 % 0 mm
10:04 10.5 °C 9.9 °C 1004.3 hPa North 13 km/h 10.3 km/h 96 % 0 mm
10:09 10.6 °C 9.9 °C 1004.3 hPa North 14.8 km/h 11.9 km/h 96 % 0 mm
10:14 10.6 °C 10 °C 1004.3 hPa North 9.3 km/h 6.8 km/h 96 % 0 mm
10:19 10.7 °C 9.9 °C 1004.3 hPa North 9.7 km/h 7.2 km/h 95 % 0 mm
10:24 10.7 °C 9.9 °C 1004.3 hPa North 11.1 km/h 5.5 km/h 95 % 0 mm
10:29 10.8 °C 10 °C 1004.3 hPa North 17.7 km/h 11.1 km/h 95 % 0 mm
10:34 10.9 °C 10.2 °C 1004.3 hPa North 13 km/h 8 km/h 95 % 0 mm
10:39 10.9 °C 9.9 °C 1004.3 hPa NNW 18.5 km/h 11.6 km/h 94 % 0 mm
10:44 11.1 °C 10.2 °C 1004.3 hPa NW 20.4 km/h 15.6 km/h 94 % 0 mm
10:49 11.5 °C 10.4 °C 1004.3 hPa NW 22.2 km/h 10.9 km/h 93 % 0 mm
10:54 11.8 °C 10.3 °C 1004.3 hPa NW 20.4 km/h 11.3 km/h 91 % 0 mm
10:59 11.8 °C 10.2 °C 1004.3 hPa NW 13 km/h 6.1 km/h 90 % 0 mm
11:04 12 °C 10.4 °C 1004.3 hPa NNW 9.7 km/h 8.2 km/h 90 % 0 mm
11:09 12.2 °C 10.4 °C 1004.3 hPa NW 16.7 km/h 14.2 km/h 89 % 0 mm
11:14 12.3 °C 10.3 °C 1004.3 hPa NNW 17.7 km/h 10.8 km/h 88 % 0 mm
11:19 12.4 °C 10.1 °C 1004.3 hPa NNW 17.7 km/h 11.6 km/h 86 % 0 mm
11:24 12.4 °C 10.2 °C 1004.3 hPa NNW 18.5 km/h 8.9 km/h 86 % 0 mm
11:29 12.4 °C 10.1 °C 1003.9 hPa NW 20.4 km/h 16.6 km/h 86 % 0 mm
11:34 12.4 °C 10.2 °C 1003.9 hPa NNW 14.8 km/h 9.3 km/h 86 % 0 mm
11:39 12.5 °C 10.1 °C 1003.9 hPa NNW 18.5 km/h 9.5 km/h 85 % 0 mm
11:44 12.7 °C 10.4 °C 1003.9 hPa WNW 20.4 km/h 16.1 km/h 86 % 0 mm
11:49 12.8 °C 10.2 °C 1003.9 hPa North 31.5 km/h 19 km/h 84 % 0 mm
11:54 13.1 °C 10.3 °C 1003.9 hPa NNW 22.2 km/h 15.6 km/h 83 % 0 mm
11:59 13.1 °C 10.2 °C 1003.9 hPa NW 18.5 km/h 9.5 km/h 83 % 0 mm
12:04 13.3 °C 10.4 °C 1003.9 hPa NW 25.9 km/h 16.6 km/h 83 % 0 mm
12:09 13.2 °C 10.2 °C 1003.6 hPa NNW 24.1 km/h 18.2 km/h 82 % 0 mm
12:14 13.3 °C 10.5 °C 1003.6 hPa North 20.4 km/h 14.2 km/h 83 % 0 mm
12:19 13.6 °C 10.6 °C 1003.6 hPa WNW 18.5 km/h 9.5 km/h 82 % 0 mm
12:24 13.8 °C 10.3 °C 1003.6 hPa WNW 25.9 km/h 19 km/h 79 % 0 mm
12:29 13.6 °C 9.8 °C 1003.6 hPa NW 31.5 km/h 17.7 km/h 78 % 0 mm
12:34 13.9 °C 10.1 °C 1003.6 hPa WNW 24.1 km/h 15.1 km/h 78 % 0 mm
12:39 14.1 °C 10.1 °C 1003.3 hPa WNW 22.2 km/h 11.3 km/h 77 % 0 mm
12:44 13.8 °C 9.6 °C 1003.3 hPa NW 25.9 km/h 18.8 km/h 76 % 0 mm
12:49 13.7 °C 9.8 °C 1003.3 hPa NW 24.1 km/h 11.7 km/h 77 % 0 mm
12:54 13.9 °C 9.7 °C 1003.3 hPa North 22.5 km/h 18.3 km/h 76 % 0 mm
12:59 13.8 °C 9.6 °C 1003.3 hPa WNW 29.6 km/h 20.6 km/h 76 % 0 mm
13:04 13.6 °C 9.4 °C 1003.3 hPa NW 31.5 km/h 17.9 km/h 76 % 0 mm
13:09 13.4 °C 9.5 °C 1002.9 hPa NW 27.8 km/h 21.2 km/h 77 % 0 mm
13:14 13.2 °C 9.4 °C 1003.3 hPa NW 29.6 km/h 11.4 km/h 78 % 0 mm
13:19 13.1 °C 9.7 °C 1003.3 hPa NW 18.5 km/h 16.3 km/h 80 % 0 mm
13:24 12.9 °C 9.5 °C 1002.9 hPa NNW 18.5 km/h 12.4 km/h 80 % 0 mm
13:29 12.9 °C 9.7 °C 1002.9 hPa NW 18.5 km/h 12.9 km/h 81 % 0 mm
13:34 12.9 °C 9.9 °C 1002.9 hPa North 16.7 km/h 8.9 km/h 82 % 0 mm
13:39 12.9 °C 10.1 °C 1002.9 hPa NW 14.8 km/h 9.5 km/h 83 % 0 mm
13:44 12.9 °C 10.1 °C 1002.9 hPa NNW 14.8 km/h 10.5 km/h 83 % 0 mm
13:49 12.8 °C 10 °C 1003.3 hPa North 13 km/h 9.7 km/h 83 % 0 mm
13:54 12.6 °C 10.2 °C 1002.9 hPa NW 18.5 km/h 11.3 km/h 85 % 0 mm
13:59 12.4 °C 10.3 °C 1002.9 hPa NNW 14.8 km/h 9 km/h 87 % 0 mm
14:04 12.3 °C 10.4 °C 1003.3 hPa North 20.4 km/h 13.7 km/h 88 % 0 mm
14:09 12.3 °C 10.5 °C 1003.3 hPa NW 16.7 km/h 9.8 km/h 89 % 0 mm
14:14 12.3 °C 10.5 °C 1003.3 hPa NNW 14.8 km/h 10.3 km/h 89 % 0 mm
14:19 12.3 °C 10.5 °C 1003.3 hPa NW 16.7 km/h 11.9 km/h 89 % 0 mm
14:24 12.3 °C 10.5 °C 1003.3 hPa WNW 18.5 km/h 11.9 km/h 89 % 0 mm
14:29 12.3 °C 10.3 °C 1003.6 hPa WNW 14.8 km/h 8.4 km/h 88 % 0 mm
14:34 12.3 °C 10.3 °C 1003.6 hPa WNW 16.7 km/h 12.4 km/h 88 % 0 mm
14:39 12.2 °C 10.4 °C 1003.6 hPa WNW 18.5 km/h 11.7 km/h 89 % 0.25 mm
14:44 12.2 °C 10.6 °C 1003.6 hPa WNW 11.1 km/h 11.4 km/h 90 % 0.25 mm
14:49 12.2 °C 10.6 °C 1003.6 hPa West 16.7 km/h 14.2 km/h 90 % 0.25 mm
14:54 12.2 °C 10.6 °C 1003.6 hPa West 16.7 km/h 14.6 km/h 90 % 0.25 mm
14:59 12.2 °C 10.4 °C 1003.6 hPa WNW 18.5 km/h 8.7 km/h 89 % 0.25 mm
15:04 12.3 °C 10.4 °C 1003.6 hPa West 16.7 km/h 11.4 km/h 88 % 0.25 mm
15:09 12.3 °C 10.4 °C 1003.9 hPa WNW 22.2 km/h 15.1 km/h 88 % 0.25 mm
15:14 12.3 °C 10.2 °C 1003.9 hPa West 18.5 km/h 10.5 km/h 87 % 0.25 mm
15:19 12.4 °C 10.3 °C 1003.9 hPa WNW 14.8 km/h 13 km/h 87 % 0.25 mm
15:24 12.6 °C 10.4 °C 1003.9 hPa West 14.8 km/h 10.6 km/h 87 % 0.25 mm
15:29 12.6 °C 10.5 °C 1003.9 hPa WNW 14.8 km/h 8 km/h 87 % 0.25 mm
15:34 12.6 °C 10.5 °C 1003.9 hPa WNW 7.4 km/h 5.6 km/h 87 % 0.25 mm
15:39 12.6 °C 10.3 °C 1003.9 hPa West 17.7 km/h 13.2 km/h 86 % 0 mm
15:44 12.5 °C 10.1 °C 1003.9 hPa West 11.1 km/h 5.8 km/h 85 % 0 mm
15:49 12.6 °C 10.1 °C 1004.3 hPa West 6.4 km/h 3.4 km/h 85 % 0 mm
15:54 12.6 °C 10 °C 1004.3 hPa West 11.1 km/h 2.9 km/h 84 % 0 mm
15:59 12.6 °C 9.8 °C 1004.3 hPa West 8 km/h 7.1 km/h 83 % 0 mm
16:04 12.7 °C 9.7 °C 1004.3 hPa West 13 km/h 7.4 km/h 82 % 0 mm
16:09 12.7 °C 9.7 °C 1004.6 hPa West 7.4 km/h 4 km/h 82 % 0 mm
16:14 12.6 °C 9.4 °C 1004.6 hPa West 9.3 km/h 7.6 km/h 81 % 0 mm
16:19 12.6 °C 9.4 °C 1004.6 hPa WNW 9.7 km/h 9.5 km/h 81 % 0 mm
16:24 12.5 °C 9.3 °C 1004.6 hPa West 7.4 km/h 6.9 km/h 81 % 0 mm
16:29 12.4 °C 9.3 °C 1005 hPa North 7.4 km/h 6.3 km/h 81 % 0 mm
16:34 12.4 °C 9.2 °C 1005 hPa WNW 11.3 km/h 9.2 km/h 81 % 0 mm
16:39 12.4 °C 9.2 °C 1005 hPa WNW 11.1 km/h 8.9 km/h 81 % 0 mm
16:44 12.4 °C 9.1 °C 1005 hPa WNW 11.3 km/h 8.5 km/h 80 % 0 mm
16:49 12.3 °C 8.9 °C 1005 hPa WNW 18.5 km/h 10.8 km/h 80 % 0 mm
16:54 12.2 °C 8.8 °C 1005 hPa WNW 16.7 km/h 9.8 km/h 80 % 0 mm
16:59 12.2 °C 8.8 °C 1005 hPa North 14.8 km/h 10 km/h 80 % 0 mm
17:04 12.1 °C 8.6 °C 1005 hPa West 14.8 km/h 11.1 km/h 79 % 0 mm
17:09 12 °C 8.4 °C 1005 hPa West 11.1 km/h 8.4 km/h 79 % 0 mm
17:14 12 °C 8.4 °C 1005.3 hPa WSW 14.8 km/h 12.1 km/h 79 % 0 mm
17:19 12 °C 8.4 °C 1005.3 hPa WSW 14.8 km/h 10 km/h 79 % 0 mm
17:24 11.9 °C 8.6 °C 1005.3 hPa West 13 km/h 9.3 km/h 80 % 0 mm
17:29 11.8 °C 8.4 °C 1005.6 hPa North 9.3 km/h 6.3 km/h 80 % 0 mm
17:34 11.7 °C 8.5 °C 1005.6 hPa West 9.3 km/h 5.8 km/h 81 % 0 mm
17:39 11.6 °C 8.6 °C 1005.6 hPa West 11.1 km/h 6.1 km/h 82 % 0 mm
17:44 11.5 °C 8.7 °C 1005.6 hPa West 9.3 km/h 7.1 km/h 83 % 0 mm
17:49 11.4 °C 8.7 °C 1005.6 hPa West 9.7 km/h 8 km/h 83 % 0 mm
17:54 11.4 °C 8.8 °C 1005.6 hPa West 16.7 km/h 11.4 km/h 84 % 0 mm
17:59 11.4 °C 8.9 °C 1006 hPa West 8 km/h 5.5 km/h 85 % 0 mm
18:04 11.4 °C 8.9 °C 1006 hPa West 13 km/h 7.1 km/h 85 % 0 mm
18:09 11.3 °C 8.8 °C 1006 hPa West 9.3 km/h 7.6 km/h 85 % 0 mm
18:14 11.2 °C 8.8 °C 1006 hPa West 7.4 km/h 6.3 km/h 85 % 0 mm
18:19 11.2 °C 8.7 °C 1006.3 hPa WSW 14.5 km/h 9.3 km/h 85 % 0 mm
18:24 11.2 °C 8.7 °C 1006.3 hPa WSW 11.1 km/h 6.6 km/h 85 % 0 mm
18:29 11.1 °C 8.7 °C 1006.3 hPa WSW 17.7 km/h 12.1 km/h 85 % 0 mm
18:34 11.1 °C 8.5 °C 1006.3 hPa WSW 11.1 km/h 6.9 km/h 84 % 0 mm
18:39 11.1 °C 8.6 °C 1006.7 hPa WSW 13 km/h 9.8 km/h 85 % 0 mm
18:44 11 °C 8.6 °C 1006.7 hPa WSW 13 km/h 8 km/h 85 % 0 mm
18:49 11 °C 8.6 °C 1006.7 hPa WSW 14.8 km/h 9 km/h 85 % 0 mm
18:54 11 °C 8.6 °C 1006.7 hPa WSW 11.3 km/h 9.5 km/h 85 % 0 mm
18:59 10.9 °C 8.5 °C 1006.7 hPa WSW 12.9 km/h 8.4 km/h 85 % 0 mm
19:04 10.9 °C 8.4 °C 1006.7 hPa WSW 11.1 km/h 7.2 km/h 85 % 0 mm
19:09 10.8 °C 8.2 °C 1006.7 hPa WSW 20.9 km/h 10.5 km/h 84 % 0 mm
19:14 10.8 °C 8.2 °C 1007 hPa WSW 18.5 km/h 16.7 km/h 84 % 0 mm
19:19 10.7 °C 8.1 °C 1007 hPa WSW 22.2 km/h 16.9 km/h 84 % 0 mm
19:24 10.6 °C 8 °C 1007 hPa North 20.4 km/h 14.5 km/h 84 % 0 mm
19:29 10.5 °C 7.9 °C 1006.7 hPa North 13 km/h 10.9 km/h 84 % 0 mm
19:34 10.3 °C 7.7 °C 1006.7 hPa West 20.9 km/h 15.6 km/h 84 % 0 mm
19:39 10.3 °C 7.7 °C 1007 hPa WSW 8 km/h 5.5 km/h 84 % 0 mm
19:44 10.3 °C 7.7 °C 1007.3 hPa WSW 11.1 km/h 4.5 km/h 84 % 0 mm
19:49 10.2 °C 7.6 °C 1007.3 hPa WSW 5.6 km/h 3.9 km/h 84 % 0 mm
19:54 10.1 °C 7.6 °C 1007.3 hPa WSW 9.3 km/h 5.1 km/h 84 % 0 mm
19:59 10 °C 7.4 °C 1007.3 hPa WSW 7.4 km/h 4.8 km/h 84 % 0 mm
20:04 9.9 °C 7.3 °C 1007.3 hPa West 11.1 km/h 8.5 km/h 84 % 0 mm
20:09 9.9 °C 7.5 °C 1007.3 hPa West 16.7 km/h 8.5 km/h 85 % 0 mm
20:14 9.8 °C 7.4 °C 1007.3 hPa West 12.9 km/h 10.8 km/h 85 % 0 mm
20:19 9.7 °C 7.3 °C 1007.3 hPa North 11.3 km/h 9.5 km/h 85 % 0 mm
20:24 9.7 °C 7.3 °C 1007.3 hPa West 9.3 km/h 8.4 km/h 85 % 0 mm
20:29 9.6 °C 7.4 °C 1007.3 hPa West 5.6 km/h 3.5 km/h 86 % 0 mm
20:34 9.6 °C 7.3 °C 1007.7 hPa West 7.4 km/h 2.9 km/h 86 % 0 mm
20:39 9.5 °C 7.3 °C 1007.7 hPa West 9.3 km/h 6.8 km/h 86 % 0 mm
20:44 9.5 °C 7.3 °C 1007.7 hPa West 3.7 km/h 0.3 km/h 86 % 0 mm
20:49 9.5 °C 7.3 °C 1007.7 hPa West 4.8 km/h 3.7 km/h 86 % 0 mm
20:54 9.5 °C 7.3 °C 1007.7 hPa West 5.6 km/h 3.1 km/h 86 % 0 mm
20:59 9.4 °C 7.2 °C 1007.7 hPa North 5.6 km/h 2.3 km/h 86 % 0 mm
21:04 9.4 °C 7.1 °C 1007.7 hPa West 7.4 km/h 5.6 km/h 85 % 0 mm
21:09 9.4 °C 7.1 °C 1008 hPa West 13 km/h 7.9 km/h 85 % 0 mm
21:14 9.5 °C 6.8 °C 1008 hPa West 13 km/h 13.2 km/h 83 % 0 mm
21:19 9.6 °C 6.5 °C 1008 hPa West 16.7 km/h 11.1 km/h 81 % 0 mm
21:24 9.6 °C 5.9 °C 1008 hPa West 24.1 km/h 13.8 km/h 78 % 0 mm
21:29 9.6 °C 5.8 °C 1008 hPa West 22.2 km/h 11.3 km/h 77 % 0 mm
21:34 9.6 °C 5.4 °C 1008 hPa WSW 18.5 km/h 9 km/h 75 % 0 mm
21:39 9.6 °C 5.2 °C 1008 hPa West 20.4 km/h 12.7 km/h 74 % 0 mm
21:44 9.6 °C 5.2 °C 1008 hPa West 14.8 km/h 11.7 km/h 74 % 0 mm
21:49 9.5 °C 5.1 °C 1008 hPa WSW 18.5 km/h 11.1 km/h 74 % 0 mm
21:54 9.4 °C 5.1 °C 1008 hPa WSW 11.1 km/h 8.5 km/h 74 % 0 mm
21:59 9.4 °C 5 °C 1008 hPa WSW 18.5 km/h 9.2 km/h 74 % 0 mm
22:04 9.3 °C 4.7 °C 1008 hPa West 18.5 km/h 12.9 km/h 73 % 0 mm
22:09 9.2 °C 4.8 °C 1008 hPa West 13 km/h 10 km/h 74 % 0 mm
22:14 9.1 °C 4.7 °C 1008 hPa North 18.5 km/h 11.6 km/h 74 % 0 mm
22:19 8.9 °C 4.6 °C 1008 hPa WSW 14.8 km/h 7.6 km/h 74 % 0 mm
22:24 8.8 °C 4.4 °C 1008 hPa North 12.9 km/h 9.5 km/h 74 % 0 mm
22:29 8.8 °C 4.6 °C 1008 hPa West 11.1 km/h 9.3 km/h 75 % 0 mm
22:34 8.7 °C 4.5 °C 1008 hPa West 5.6 km/h 2.9 km/h 75 % 0 mm
22:39 8.5 °C 4.5 °C 1008 hPa WSW 6.4 km/h 6 km/h 76 % 0 mm
22:44 8.3 °C 4.3 °C 1008 hPa WSW 5.6 km/h 4.7 km/h 76 % 0 mm
22:49 8.2 °C 4.2 °C 1008 hPa West 5.6 km/h 1.8 km/h 76 % 0 mm
22:54 8.1 °C 4.3 °C 1008 hPa WSW 3.2 km/h 0.3 km/h 77 % 0 mm
22:59 7.8 °C 4.1 °C 1008 hPa West 3.7 km/h 1.9 km/h 77 % 0 mm
23:04 7.7 °C 4.1 °C 1008 hPa Calm     78 % 0 mm
23:09 7.4 °C 4.1 °C 1008 hPa WSW 3.7 km/h 1.3 km/h 79 % 0 mm
23:14 7.3 °C 3.9 °C 1008 hPa North 4.8 km/h 4 km/h 79 % 0 mm
23:19 7 °C 3.9 °C 1008 hPa West 9.7 km/h 5.8 km/h 81 % 0 mm
23:24 7.2 °C 4.1 °C 1008 hPa North 5.6 km/h 5.8 km/h 81 % 0 mm
23:29 7.4 °C 4.4 °C 1008 hPa West 7.4 km/h 5.8 km/h 81 % 0 mm
23:34 7.9 °C 4.4 °C 1008 hPa WSW 6.4 km/h 6.4 km/h 79 % 0 mm
23:39 8.2 °C 4.6 °C 1008 hPa West 7.4 km/h 6.3 km/h 78 % 0 mm
23:44 8.2 °C 4.6 °C 1008 hPa WSW 7.4 km/h 4.5 km/h 78 % 0 mm
23:49 8.2 °C 4.6 °C 1008 hPa West 5.6 km/h 4.2 km/h 78 % 0 mm
23:54 8.1 °C 4.5 °C 1008 hPa West 3.7 km/h   78 % 0 mm
23:59 8.1 °C 4.7 °C 1008 hPa Calm     79 % 0 mm
Ararat Weather
Compliments of Weather Underground - 2.25 mb
Click here to send mail.


ABOUT

Live weather data from Ararat, Victoria, Australia, 3377
Data uploaded from Cumulus every 5 minutes to Weather Underground.
This site then downloads the raw data for formatting and display.
Metric and imperial data can be displayed. Graphs and historical data available.
Includes Sun and Moon times and rain image live from BOM.

Check out Ararat Weather on Facebook, Twitter and Google +

Help support ongoing costs by checking out the ads





Follow @AraratWeather